Year,Month,Day,Hour,Minute,Value (Times are PST for temperature in C)
2015,05,08,00,00,8.80
2015,05,08,00,01,8.80
2015,05,08,00,02,8.80
2015,05,08,00,03,8.80
2015,05,08,00,04,8.70
2015,05,08,00,05,8.70
2015,05,08,00,06,8.70
2015,05,08,00,07,8.70
2015,05,08,00,08,8.70
2015,05,08,00,09,8.60
2015,05,08,00,10,8.60
2015,05,08,00,11,8.60
2015,05,08,00,12,8.60
2015,05,08,00,13,8.50
2015,05,08,00,14,8.50
2015,05,08,00,15,8.50
2015,05,08,00,16,8.40
2015,05,08,00,17,8.40
2015,05,08,00,18,8.40
2015,05,08,00,19,8.40
2015,05,08,00,20,8.40
2015,05,08,00,21,8.40
2015,05,08,00,22,8.40
2015,05,08,00,23,8.40
2015,05,08,00,24,8.40
2015,05,08,00,25,8.30
2015,05,08,00,26,8.30
2015,05,08,00,27,8.30
2015,05,08,00,28,8.30
2015,05,08,00,29,8.30
2015,05,08,00,30,8.30
2015,05,08,00,31,8.30
2015,05,08,00,32,8.30
2015,05,08,00,33,8.20
2015,05,08,00,34,8.20
2015,05,08,00,35,8.20
2015,05,08,00,36,8.20
2015,05,08,00,37,8.20
2015,05,08,00,38,8.20
2015,05,08,00,39,8.10
2015,05,08,00,40,8.10
2015,05,08,00,41,8.10
2015,05,08,00,42,8.10
2015,05,08,00,43,8.10
2015,05,08,00,44,8.00
2015,05,08,00,45,8.00
2015,05,08,00,46,8.00
2015,05,08,00,47,8.00
2015,05,08,00,48,8.00
2015,05,08,00,49,7.90
2015,05,08,00,50,7.90
2015,05,08,00,51,7.90
2015,05,08,00,52,7.90
2015,05,08,00,53,7.90
2015,05,08,00,54,7.90
2015,05,08,00,55,7.90
2015,05,08,00,56,7.90
2015,05,08,00,57,7.90
2015,05,08,00,58,7.80
2015,05,08,00,59,7.80
2015,05,08,01,00,7.80
2015,05,08,01,01,7.80
2015,05,08,01,02,7.80
2015,05,08,01,03,7.80
2015,05,08,01,04,7.80
2015,05,08,01,05,7.80
2015,05,08,01,06,7.80
2015,05,08,01,07,7.80
2015,05,08,01,08,7.80
2015,05,08,01,09,7.70
2015,05,08,01,10,7.70
2015,05,08,01,11,7.70
2015,05,08,01,12,7.70
2015,05,08,01,13,7.70
2015,05,08,01,14,7.70
2015,05,08,01,15,7.60
2015,05,08,01,16,7.60
2015,05,08,01,17,7.60
2015,05,08,01,18,7.60
2015,05,08,01,19,7.60
2015,05,08,01,20,7.60
2015,05,08,01,21,7.50
2015,05,08,01,22,7.50
2015,05,08,01,23,7.50
2015,05,08,01,24,7.50
2015,05,08,01,25,7.40
2015,05,08,01,26,7.40
2015,05,08,01,27,7.40
2015,05,08,01,28,7.40
2015,05,08,01,29,7.30
2015,05,08,01,30,7.30
2015,05,08,01,31,7.30
2015,05,08,01,32,7.30
2015,05,08,01,33,7.30
2015,05,08,01,34,7.30
2015,05,08,01,35,7.30
2015,05,08,01,36,7.20
2015,05,08,01,37,7.20
2015,05,08,01,38,7.20
2015,05,08,01,39,7.20
2015,05,08,01,40,7.20
2015,05,08,01,41,7.20
2015,05,08,01,42,7.20
2015,05,08,01,43,7.20
2015,05,08,01,44,7.20
2015,05,08,01,45,7.20
2015,05,08,01,46,7.10
2015,05,08,01,47,7.10
2015,05,08,01,48,7.10
2015,05,08,01,49,7.10
2015,05,08,01,50,7.10
2015,05,08,01,51,7.10
2015,05,08,01,52,7.10
2015,05,08,01,53,7.10
2015,05,08,01,54,7.00
2015,05,08,01,55,7.00
2015,05,08,01,56,7.00
2015,05,08,01,57,7.00
2015,05,08,01,58,7.00
2015,05,08,01,59,6.90
2015,05,08,02,00,6.90
2015,05,08,02,01,6.90
2015,05,08,02,02,6.90
2015,05,08,02,03,6.80
2015,05,08,02,04,6.80
2015,05,08,02,05,6.80
2015,05,08,02,06,6.80
2015,05,08,02,07,6.80
2015,05,08,02,08,6.80
2015,05,08,02,09,6.80
2015,05,08,02,10,6.80
2015,05,08,02,11,6.80
2015,05,08,02,12,6.80
2015,05,08,02,13,6.80
2015,05,08,02,14,6.70
2015,05,08,02,15,6.70
2015,05,08,02,16,6.70
2015,05,08,02,17,6.70
2015,05,08,02,18,6.70
2015,05,08,02,19,6.70
2015,05,08,02,20,6.70
2015,05,08,02,21,6.60
2015,05,08,02,22,6.60
2015,05,08,02,23,6.60
2015,05,08,02,24,6.60
2015,05,08,02,25,6.60
2015,05,08,02,26,6.60
2015,05,08,02,27,6.60
2015,05,08,02,28,6.60
2015,05,08,02,29,6.50
2015,05,08,02,30,6.50
2015,05,08,02,31,6.50
2015,05,08,02,32,6.50
2015,05,08,02,33,6.50
2015,05,08,02,34,6.40
2015,05,08,02,35,6.40
2015,05,08,02,36,6.40
2015,05,08,02,37,6.40
2015,05,08,02,38,6.40
2015,05,08,02,39,6.40
2015,05,08,02,40,6.40
2015,05,08,02,41,6.40
2015,05,08,02,42,6.40
2015,05,08,02,43,6.40
2015,05,08,02,44,6.40
2015,05,08,02,45,6.30
2015,05,08,02,46,6.30
2015,05,08,02,47,6.30
2015,05,08,02,48,6.30
2015,05,08,02,49,6.30
2015,05,08,02,50,6.30
2015,05,08,02,51,6.30
2015,05,08,02,52,6.30
2015,05,08,02,53,6.30
2015,05,08,02,54,6.20
2015,05,08,02,55,6.20
2015,05,08,02,56,6.20
2015,05,08,02,57,6.20
2015,05,08,02,58,6.20
2015,05,08,02,59,6.20
2015,05,08,03,00,6.20
2015,05,08,03,01,6.20
2015,05,08,03,02,6.20
2015,05,08,03,03,6.10
2015,05,08,03,04,6.10
2015,05,08,03,05,6.10
2015,05,08,03,06,6.10
2015,05,08,03,07,6.10
2015,05,08,03,08,6.10
2015,05,08,03,09,6.10
2015,05,08,03,10,6.10
2015,05,08,03,11,6.10
2015,05,08,03,12,6.00
2015,05,08,03,13,6.00
2015,05,08,03,14,6.00
2015,05,08,03,15,6.00
2015,05,08,03,16,5.90
2015,05,08,03,17,5.90
2015,05,08,03,18,5.90
2015,05,08,03,19,5.90
2015,05,08,03,20,5.90
2015,05,08,03,21,5.90
2015,05,08,03,22,5.90
2015,05,08,03,23,5.80
2015,05,08,03,24,5.80
2015,05,08,03,25,5.80
2015,05,08,03,26,5.80
2015,05,08,03,27,5.80
2015,05,08,03,28,5.80
2015,05,08,03,29,5.80
2015,05,08,03,30,5.80
2015,05,08,03,31,5.80
2015,05,08,03,32,5.80
2015,05,08,03,33,5.80
2015,05,08,03,34,5.80
2015,05,08,03,35,5.70
2015,05,08,03,36,5.70
2015,05,08,03,37,5.70
2015,05,08,03,38,5.70
2015,05,08,03,39,5.70
2015,05,08,03,40,5.70
2015,05,08,03,41,5.60
2015,05,08,03,42,5.60
2015,05,08,03,43,5.60
2015,05,08,03,44,5.60
2015,05,08,03,45,5.60
2015,05,08,03,46,5.60
2015,05,08,03,47,5.60
2015,05,08,03,48,5.50
2015,05,08,03,49,5.50
2015,05,08,03,50,5.50
2015,05,08,03,51,5.50
2015,05,08,03,52,5.50
2015,05,08,03,53,5.40
2015,05,08,03,54,5.40
2015,05,08,03,55,5.40
2015,05,08,03,56,5.40
2015,05,08,03,57,5.40
2015,05,08,03,58,5.40
2015,05,08,03,59,5.40
2015,05,08,04,00,5.30
2015,05,08,04,01,5.30
2015,05,08,04,02,5.30
2015,05,08,04,03,5.30
2015,05,08,04,04,5.30
2015,05,08,04,05,5.30
2015,05,08,04,06,5.30
2015,05,08,04,07,5.30
2015,05,08,04,08,5.30
2015,05,08,04,09,5.30
2015,05,08,04,10,5.30
2015,05,08,04,11,5.20
2015,05,08,04,12,5.20
2015,05,08,04,13,5.20
2015,05,08,04,14,5.20
2015,05,08,04,15,5.20
2015,05,08,04,16,5.20
2015,05,08,04,17,5.20
2015,05,08,04,18,5.20
2015,05,08,04,19,5.20
2015,05,08,04,20,5.20
2015,05,08,04,21,5.10
2015,05,08,04,22,5.10
2015,05,08,04,23,5.10
2015,05,08,04,24,5.10
2015,05,08,04,25,5.10
2015,05,08,04,26,5.00
2015,05,08,04,27,5.00
2015,05,08,04,28,5.00
2015,05,08,04,29,5.00
2015,05,08,04,30,5.00
2015,05,08,04,31,5.00
2015,05,08,04,32,5.00
2015,05,08,04,33,4.90
2015,05,08,04,34,4.90
2015,05,08,04,35,4.90
2015,05,08,04,36,4.90
2015,05,08,04,37,4.90
2015,05,08,04,38,4.90
2015,05,08,04,39,4.90
2015,05,08,04,40,4.90
2015,05,08,04,41,4.90
2015,05,08,04,42,4.90
2015,05,08,04,43,4.90
2015,05,08,04,44,4.90
2015,05,08,04,45,4.80
2015,05,08,04,46,4.80
2015,05,08,04,47,4.80
2015,05,08,04,48,4.80
2015,05,08,04,49,4.80
2015,05,08,04,50,4.80
2015,05,08,04,51,4.80
2015,05,08,04,52,4.80
2015,05,08,04,53,4.80
2015,05,08,04,54,4.70
2015,05,08,04,55,4.70
2015,05,08,04,56,4.70
2015,05,08,04,57,4.70
2015,05,08,04,58,4.70
2015,05,08,04,59,4.70
2015,05,08,05,00,4.70
2015,05,08,05,01,4.70
2015,05,08,05,02,4.60
2015,05,08,05,03,4.60
2015,05,08,05,04,4.60
2015,05,08,05,05,4.60
2015,05,08,05,06,4.60
2015,05,08,05,07,4.60
2015,05,08,05,08,4.60
2015,05,08,05,09,4.60
2015,05,08,05,10,4.60
2015,05,08,05,11,4.60
2015,05,08,05,12,4.60
2015,05,08,05,13,4.60
2015,05,08,05,14,4.60
2015,05,08,05,15,4.50
2015,05,08,05,16,4.50
2015,05,08,05,17,4.50
2015,05,08,05,18,4.50
2015,05,08,05,19,4.50
2015,05,08,05,20,4.50
2015,05,08,05,21,4.50
2015,05,08,05,22,4.50
2015,05,08,05,23,4.40
2015,05,08,05,24,4.40
2015,05,08,05,25,4.40
2015,05,08,05,26,4.40
2015,05,08,05,27,4.40
2015,05,08,05,28,4.40
2015,05,08,05,29,4.40
2015,05,08,05,30,4.40
2015,05,08,05,31,4.40
2015,05,08,05,32,4.40
2015,05,08,05,33,4.30
2015,05,08,05,34,4.30
2015,05,08,05,35,4.30
2015,05,08,05,36,4.30
2015,05,08,05,37,4.30
2015,05,08,05,38,4.30
2015,05,08,05,39,4.30
2015,05,08,05,40,4.30
2015,05,08,05,41,4.20
2015,05,08,05,42,4.20
2015,05,08,05,43,4.20
2015,05,08,05,44,4.20
2015,05,08,05,45,4.20
2015,05,08,05,46,4.20
2015,05,08,05,47,4.20
2015,05,08,05,48,4.20
2015,05,08,05,49,4.20
2015,05,08,05,50,4.20
2015,05,08,05,51,4.20
2015,05,08,05,52,4.20
2015,05,08,05,53,4.20
2015,05,08,05,54,4.10
2015,05,08,05,55,4.10
2015,05,08,05,56,4.10
2015,05,08,05,57,4.10
2015,05,08,05,58,4.10
2015,05,08,05,59,4.10
2015,05,08,06,00,4.10
2015,05,08,06,01,4.10
2015,05,08,06,02,4.10
2015,05,08,06,03,4.10
2015,05,08,06,04,4.10
2015,05,08,06,05,4.10
2015,05,08,06,06,4.10
2015,05,08,06,07,4.10
2015,05,08,06,08,4.10
2015,05,08,06,09,4.10
2015,05,08,06,10,4.10
2015,05,08,06,11,4.10
2015,05,08,06,12,4.10
2015,05,08,06,13,4.10
2015,05,08,06,14,4.10
2015,05,08,06,15,4.10
2015,05,08,06,16,4.10
2015,05,08,06,17,4.10
2015,05,08,06,18,4.10
2015,05,08,06,19,4.10
2015,05,08,06,20,4.10
2015,05,08,06,21,4.00
2015,05,08,06,22,4.00
2015,05,08,06,23,4.00
2015,05,08,06,24,4.00
2015,05,08,06,25,3.90
2015,05,08,06,26,3.90
2015,05,08,06,27,3.90
2015,05,08,06,28,3.90
2015,05,08,06,29,3.90
2015,05,08,06,30,3.90
2015,05,08,06,31,3.90
2015,05,08,06,32,3.90
2015,05,08,06,33,3.90
2015,05,08,06,34,3.90
2015,05,08,06,35,3.90
2015,05,08,06,36,3.90
2015,05,08,06,37,3.90
2015,05,08,06,38,3.90
2015,05,08,06,39,3.90
2015,05,08,06,40,3.90
2015,05,08,06,41,3.90
2015,05,08,06,42,3.90
2015,05,08,06,43,3.90
2015,05,08,06,44,3.90
2015,05,08,06,45,3.90
2015,05,08,06,46,3.90
2015,05,08,06,47,3.90
2015,05,08,06,48,3.90
2015,05,08,06,49,3.90
2015,05,08,06,50,3.90
2015,05,08,06,51,3.90
2015,05,08,06,52,3.90
2015,05,08,06,53,4.00
2015,05,08,06,54,3.90
2015,05,08,06,55,4.00
2015,05,08,06,56,4.00
2015,05,08,06,57,3.90
2015,05,08,06,58,4.00
2015,05,08,06,59,4.00
2015,05,08,07,00,4.00
2015,05,08,07,01,4.00
2015,05,08,07,02,4.00
2015,05,08,07,03,4.00
2015,05,08,07,04,4.00
2015,05,08,07,05,4.00
2015,05,08,07,06,4.00
2015,05,08,07,07,4.10
2015,05,08,07,08,4.10
2015,05,08,07,09,4.10
2015,05,08,07,10,4.10
2015,05,08,07,11,4.10
2015,05,08,07,12,4.10
2015,05,08,07,13,4.10
2015,05,08,07,14,4.10
2015,05,08,07,15,4.20
2015,05,08,07,16,4.20
2015,05,08,07,17,4.20
2015,05,08,07,18,4.30
2015,05,08,07,19,4.40
2015,05,08,07,20,4.40
2015,05,08,07,21,4.50
2015,05,08,07,22,4.60
2015,05,08,07,23,4.70
2015,05,08,07,24,4.80
2015,05,08,07,25,4.90
2015,05,08,07,26,5.00
2015,05,08,07,27,5.10
2015,05,08,07,28,5.20
2015,05,08,07,29,5.20
2015,05,08,07,30,5.20
2015,05,08,07,31,5.30
2015,05,08,07,32,5.30
2015,05,08,07,33,5.40
2015,05,08,07,34,5.50
2015,05,08,07,35,5.60
2015,05,08,07,36,5.70
2015,05,08,07,37,5.80
2015,05,08,07,38,5.90
2015,05,08,07,39,6.00
2015,05,08,07,40,6.10
2015,05,08,07,41,6.20
2015,05,08,07,42,6.30
2015,05,08,07,43,6.40
2015,05,08,07,44,6.60
2015,05,08,07,45,6.70
2015,05,08,07,46,6.80
2015,05,08,07,47,6.90
2015,05,08,07,48,7.00
2015,05,08,07,49,7.10
2015,05,08,07,50,7.20
2015,05,08,07,51,7.20
2015,05,08,07,52,7.30
2015,05,08,07,53,7.30
2015,05,08,07,54,7.40
2015,05,08,07,55,7.50
2015,05,08,07,56,7.50
2015,05,08,07,57,7.60
2015,05,08,07,58,7.70
2015,05,08,07,59,7.70
2015,05,08,08,00,7.80
2015,05,08,08,01,7.80
2015,05,08,08,02,7.90
2015,05,08,08,03,7.90
2015,05,08,08,04,8.00
2015,05,08,08,05,8.10
2015,05,08,08,06,8.10
2015,05,08,08,07,8.20
2015,05,08,08,08,8.20
2015,05,08,08,09,8.20
2015,05,08,08,10,8.30
2015,05,08,08,11,8.30
2015,05,08,08,12,8.40
2015,05,08,08,13,8.50
2015,05,08,08,14,8.60
2015,05,08,08,15,8.60
2015,05,08,08,16,8.70
2015,05,08,08,17,8.70
2015,05,08,08,18,8.80
2015,05,08,08,19,8.80
2015,05,08,08,20,8.80
2015,05,08,08,21,8.80
2015,05,08,08,22,8.90
2015,05,08,08,23,8.90
2015,05,08,08,24,9.00
2015,05,08,08,25,9.00
2015,05,08,08,26,9.10
2015,05,08,08,27,9.10
2015,05,08,08,28,9.10
2015,05,08,08,29,9.20
2015,05,08,08,30,9.20
2015,05,08,08,31,9.20
2015,05,08,08,32,9.30
2015,05,08,08,33,9.40
2015,05,08,08,34,9.50
2015,05,08,08,35,9.60
2015,05,08,08,36,9.70
2015,05,08,08,37,9.80
2015,05,08,08,38,9.90
2015,05,08,08,39,10.00
2015,05,08,08,40,10.10
2015,05,08,08,41,10.20
2015,05,08,08,42,10.30
2015,05,08,08,43,10.40
2015,05,08,08,44,10.40
2015,05,08,08,45,10.50
2015,05,08,08,46,10.60
2015,05,08,08,47,10.60
2015,05,08,08,48,10.70
2015,05,08,08,49,10.70
2015,05,08,08,50,10.70
2015,05,08,08,51,10.70
2015,05,08,08,52,10.80
2015,05,08,08,53,10.80
2015,05,08,08,54,10.80
2015,05,08,08,55,10.80
2015,05,08,08,56,10.90
2015,05,08,08,57,10.90
2015,05,08,08,58,11.00
2015,05,08,08,59,11.10
2015,05,08,09,00,11.10
2015,05,08,09,01,11.10
2015,05,08,09,02,11.20
2015,05,08,09,03,11.20
2015,05,08,09,04,11.20
2015,05,08,09,05,11.20
2015,05,08,09,06,11.20
2015,05,08,09,07,11.30
2015,05,08,09,08,11.30
2015,05,08,09,09,11.40
2015,05,08,09,10,11.40
2015,05,08,09,11,11.40
2015,05,08,09,12,11.50
2015,05,08,09,13,11.50
2015,05,08,09,14,11.60
2015,05,08,09,15,11.60
2015,05,08,09,16,11.70
2015,05,08,09,17,11.70
2015,05,08,09,18,11.70
2015,05,08,09,19,11.80
2015,05,08,09,20,11.90
2015,05,08,09,21,12.00
2015,05,08,09,22,12.00
2015,05,08,09,23,12.10
2015,05,08,09,24,12.10
2015,05,08,09,25,12.20
2015,05,08,09,26,12.20
2015,05,08,09,27,12.20
2015,05,08,09,28,12.20
2015,05,08,09,29,12.20
2015,05,08,09,30,12.30
2015,05,08,09,31,12.40
2015,05,08,09,32,12.50
2015,05,08,09,33,12.50
2015,05,08,09,34,12.60
2015,05,08,09,35,12.70
2015,05,08,09,36,12.80
2015,05,08,09,37,12.80
2015,05,08,09,38,12.80
2015,05,08,09,39,12.80
2015,05,08,09,40,12.80
2015,05,08,09,41,12.90
2015,05,08,09,42,12.90
2015,05,08,09,43,13.00
2015,05,08,09,44,13.10
2015,05,08,09,45,13.20
2015,05,08,09,46,13.20
2015,05,08,09,47,13.30
2015,05,08,09,48,13.40
2015,05,08,09,49,13.50
2015,05,08,09,50,13.50
2015,05,08,09,51,13.60
2015,05,08,09,52,13.60
2015,05,08,09,53,13.70
2015,05,08,09,54,13.70
2015,05,08,09,55,13.70
2015,05,08,09,56,13.70
2015,05,08,09,57,13.70
2015,05,08,09,58,13.80
2015,05,08,09,59,13.80
2015,05,08,10,00,13.90
2015,05,08,10,01,13.90
2015,05,08,10,02,14.00
2015,05,08,10,03,14.10
2015,05,08,10,04,14.20
2015,05,08,10,05,14.20
2015,05,08,10,06,14.30
2015,05,08,10,07,14.40
2015,05,08,10,08,14.50
2015,05,08,10,09,14.70
2015,05,08,10,10,14.80
2015,05,08,10,11,14.90
2015,05,08,10,12,14.90
2015,05,08,10,13,14.90
2015,05,08,10,14,15.00
2015,05,08,10,15,15.00
2015,05,08,10,16,15.00
2015,05,08,10,17,14.90
2015,05,08,10,18,14.90
2015,05,08,10,19,14.80
2015,05,08,10,20,14.80
2015,05,08,10,21,14.80
2015,05,08,10,22,14.70
2015,05,08,10,23,14.70
2015,05,08,10,24,14.70
2015,05,08,10,25,14.70
2015,05,08,10,26,14.70
2015,05,08,10,27,14.70
2015,05,08,10,28,14.80
2015,05,08,10,29,14.90
2015,05,08,10,30,14.90
2015,05,08,10,31,15.00
2015,05,08,10,32,15.00
2015,05,08,10,33,15.10
2015,05,08,10,34,15.20
2015,05,08,10,35,15.20
2015,05,08,10,36,15.30
2015,05,08,10,37,15.40
2015,05,08,10,38,15.40
2015,05,08,10,39,15.40
2015,05,08,10,40,15.50
2015,05,08,10,41,15.60
2015,05,08,10,42,15.70
2015,05,08,10,43,15.70
2015,05,08,10,44,15.80
2015,05,08,10,45,15.80
2015,05,08,10,46,15.80
2015,05,08,10,47,15.80
2015,05,08,10,48,15.90
2015,05,08,10,49,15.90
2015,05,08,10,50,16.00
2015,05,08,10,51,16.00
2015,05,08,10,52,16.00
2015,05,08,10,53,16.00
2015,05,08,10,54,16.10
2015,05,08,10,55,16.10
2015,05,08,10,56,16.10
2015,05,08,10,57,16.20
2015,05,08,10,58,16.30
2015,05,08,10,59,16.40
2015,05,08,11,00,16.50
2015,05,08,11,01,16.50
2015,05,08,11,02,16.50
2015,05,08,11,03,16.50
2015,05,08,11,04,16.60
2015,05,08,11,05,16.60
2015,05,08,11,06,16.60
2015,05,08,11,07,16.70
2015,05,08,11,08,16.80
2015,05,08,11,09,17.00
2015,05,08,11,10,17.20
2015,05,08,11,11,17.30
2015,05,08,11,12,17.50
2015,05,08,11,13,17.60
2015,05,08,11,14,17.80
2015,05,08,11,15,18.00
2015,05,08,11,16,18.20
2015,05,08,11,17,18.40
2015,05,08,11,18,18.50
2015,05,08,11,19,18.60
2015,05,08,11,20,18.70
2015,05,08,11,21,18.70
2015,05,08,11,22,18.70
2015,05,08,11,23,18.70
2015,05,08,11,24,18.80
2015,05,08,11,25,18.80
2015,05,08,11,26,18.80
2015,05,08,11,27,18.90
2015,05,08,11,28,19.00
2015,05,08,11,29,19.10
2015,05,08,11,30,19.20
2015,05,08,11,31,19.30
2015,05,08,11,32,19.50
2015,05,08,11,33,19.60
2015,05,08,11,34,19.70
2015,05,08,11,35,19.80
2015,05,08,11,36,19.90
2015,05,08,11,37,19.90
2015,05,08,11,38,19.90
2015,05,08,11,39,20.00
2015,05,08,11,40,20.10
2015,05,08,11,41,20.10
2015,05,08,11,42,20.20
2015,05,08,11,43,20.20
2015,05,08,11,44,20.30
2015,05,08,11,45,20.30
2015,05,08,11,46,20.30
2015,05,08,11,47,20.30
2015,05,08,11,48,20.30
2015,05,08,11,49,20.30
2015,05,08,11,50,20.40
2015,05,08,11,51,20.40
2015,05,08,11,52,20.40
2015,05,08,11,53,20.50
2015,05,08,11,54,20.50
2015,05,08,11,55,20.50
2015,05,08,11,56,20.60
2015,05,08,11,57,20.60
2015,05,08,11,58,20.60
2015,05,08,11,59,20.70
2015,05,08,12,00,20.80
2015,05,08,12,01,20.80
2015,05,08,12,02,21.00
2015,05,08,12,03,21.10
2015,05,08,12,04,21.20
2015,05,08,12,05,21.30
2015,05,08,12,06,21.30
2015,05,08,12,07,21.30
2015,05,08,12,08,21.30
2015,05,08,12,09,21.30
2015,05,08,12,10,21.40
2015,05,08,12,11,21.50
2015,05,08,12,12,21.60
2015,05,08,12,13,21.80
2015,05,08,12,14,21.80
2015,05,08,12,15,21.90
2015,05,08,12,16,22.00
2015,05,08,12,17,22.00
2015,05,08,12,18,22.10
2015,05,08,12,19,22.20
2015,05,08,12,20,22.20
2015,05,08,12,21,22.30
2015,05,08,12,22,22.30
2015,05,08,12,23,22.40
2015,05,08,12,24,22.40
2015,05,08,12,25,22.50
2015,05,08,12,26,22.60
2015,05,08,12,27,22.60
2015,05,08,12,28,22.70
2015,05,08,12,29,22.70
2015,05,08,12,30,22.80
2015,05,08,12,31,22.80
2015,05,08,12,32,22.80
2015,05,08,12,33,22.80
2015,05,08,12,34,22.80
2015,05,08,12,35,22.80
2015,05,08,12,36,22.80
2015,05,08,12,37,22.80
2015,05,08,12,38,22.90
2015,05,08,12,39,22.90
2015,05,08,12,40,23.00
2015,05,08,12,41,23.00
2015,05,08,12,42,23.10
2015,05,08,12,43,23.10
2015,05,08,12,44,23.20
2015,05,08,12,45,23.20
2015,05,08,12,46,23.30
2015,05,08,12,47,23.50
2015,05,08,12,48,23.60
2015,05,08,12,49,23.60
2015,05,08,12,50,23.70
2015,05,08,12,51,23.70
2015,05,08,12,52,23.70
2015,05,08,12,53,23.80
2015,05,08,12,54,23.80
2015,05,08,12,55,23.90
2015,05,08,12,56,24.00
2015,05,08,12,57,24.00
2015,05,08,12,58,24.10
2015,05,08,12,59,24.20
2015,05,08,13,00,24.20
2015,05,08,13,01,24.20
2015,05,08,13,02,24.30
2015,05,08,13,03,24.30
2015,05,08,13,04,24.30
2015,05,08,13,05,24.30
2015,05,08,13,06,24.30
2015,05,08,13,07,24.30
2015,05,08,13,08,24.30
2015,05,08,13,09,24.30
2015,05,08,13,10,24.30
2015,05,08,13,11,24.30
2015,05,08,13,12,24.30
2015,05,08,13,13,24.30
2015,05,08,13,14,24.30
2015,05,08,13,15,24.20
2015,05,08,13,16,24.20
2015,05,08,13,17,24.20
2015,05,08,13,18,24.10
2015,05,08,13,19,24.10
2015,05,08,13,20,24.10
2015,05,08,13,21,24.20
2015,05,08,13,22,24.20
2015,05,08,13,23,24.20
2015,05,08,13,24,24.20
2015,05,08,13,25,24.30
2015,05,08,13,26,24.30
2015,05,08,13,27,24.30
2015,05,08,13,28,24.40
2015,05,08,13,29,24.50
2015,05,08,13,30,24.50
2015,05,08,13,31,24.60
2015,05,08,13,32,24.50
2015,05,08,13,33,24.50
2015,05,08,13,34,24.40
2015,05,08,13,35,24.30
2015,05,08,13,36,24.30
2015,05,08,13,37,24.30
2015,05,08,13,38,24.30
2015,05,08,13,39,24.30
2015,05,08,13,40,24.30
2015,05,08,13,41,24.30
2015,05,08,13,42,24.30
2015,05,08,13,43,24.30
2015,05,08,13,44,24.30
2015,05,08,13,45,24.30
2015,05,08,13,46,24.40
2015,05,08,13,47,24.40
2015,05,08,13,48,24.50
2015,05,08,13,49,24.50
2015,05,08,13,50,24.60
2015,05,08,13,51,24.60
2015,05,08,13,52,24.70
2015,05,08,13,53,24.70
2015,05,08,13,54,24.70
2015,05,08,13,55,24.80
2015,05,08,13,56,24.80
2015,05,08,13,57,24.70
2015,05,08,13,58,24.70
2015,05,08,13,59,24.70
2015,05,08,14,00,24.70
2015,05,08,14,01,24.70
2015,05,08,14,02,24.70
2015,05,08,14,03,24.70
2015,05,08,14,04,24.70
2015,05,08,14,05,24.70
2015,05,08,14,06,24.70
2015,05,08,14,07,24.70
2015,05,08,14,08,24.70
2015,05,08,14,09,24.70
2015,05,08,14,10,24.60
2015,05,08,14,11,24.60
2015,05,08,14,12,24.70
2015,05,08,14,13,24.70
2015,05,08,14,14,24.60
2015,05,08,14,15,24.60
2015,05,08,14,16,24.60
2015,05,08,14,17,24.60
2015,05,08,14,18,24.60
2015,05,08,14,19,24.70
2015,05,08,14,20,24.70
2015,05,08,14,21,24.70
2015,05,08,14,22,24.70
2015,05,08,14,23,24.70
2015,05,08,14,24,24.80
2015,05,08,14,25,24.80
2015,05,08,14,26,24.80
2015,05,08,14,27,24.80
2015,05,08,14,28,24.90
2015,05,08,14,29,24.90
2015,05,08,14,30,24.90
2015,05,08,14,31,24.90
2015,05,08,14,32,24.90
2015,05,08,14,33,24.90
2015,05,08,14,34,24.90
2015,05,08,14,35,24.80
2015,05,08,14,36,24.80
2015,05,08,14,37,24.80
2015,05,08,14,38,24.80
2015,05,08,14,39,24.80
2015,05,08,14,40,24.80
2015,05,08,14,41,24.80
2015,05,08,14,42,24.80
2015,05,08,14,43,24.80
2015,05,08,14,44,24.80
2015,05,08,14,45,24.80
2015,05,08,14,46,24.80
2015,05,08,14,47,24.80
2015,05,08,14,48,24.80
2015,05,08,14,49,24.80
2015,05,08,14,50,24.80
2015,05,08,14,51,24.80
2015,05,08,14,52,24.80
2015,05,08,14,53,24.90
2015,05,08,14,54,24.90
2015,05,08,14,55,24.90
2015,05,08,14,56,24.90
2015,05,08,14,57,24.80
2015,05,08,14,58,24.80
2015,05,08,14,59,24.80
2015,05,08,15,00,24.90
2015,05,08,15,01,24.90
2015,05,08,15,02,24.80
2015,05,08,15,03,24.80
2015,05,08,15,04,24.80
2015,05,08,15,05,24.80
2015,05,08,15,06,24.70
2015,05,08,15,07,24.70
2015,05,08,15,08,24.80
2015,05,08,15,09,24.80
2015,05,08,15,10,24.80
2015,05,08,15,11,24.90
2015,05,08,15,12,24.90
2015,05,08,15,13,24.90
2015,05,08,15,14,24.80
2015,05,08,15,15,24.80
2015,05,08,15,16,24.80
2015,05,08,15,17,24.90
2015,05,08,15,18,24.90
2015,05,08,15,19,25.00
2015,05,08,15,20,25.00
2015,05,08,15,21,25.00
2015,05,08,15,22,25.00
2015,05,08,15,23,24.90
2015,05,08,15,24,24.90
2015,05,08,15,25,24.90
2015,05,08,15,26,24.90
2015,05,08,15,27,24.80
2015,05,08,15,28,24.80
2015,05,08,15,29,24.80
2015,05,08,15,30,24.80
2015,05,08,15,31,24.80
2015,05,08,15,32,24.80
2015,05,08,15,33,24.80
2015,05,08,15,34,24.80
2015,05,08,15,35,24.80
2015,05,08,15,36,24.90
2015,05,08,15,37,24.90
2015,05,08,15,38,24.90
2015,05,08,15,39,24.90
2015,05,08,15,40,24.90
2015,05,08,15,41,24.90
2015,05,08,15,42,24.90
2015,05,08,15,43,24.90
2015,05,08,15,44,25.00
2015,05,08,15,45,25.00
2015,05,08,15,46,25.10
2015,05,08,15,47,25.10
2015,05,08,15,48,25.10
2015,05,08,15,49,25.10
2015,05,08,15,50,25.10
2015,05,08,15,51,25.00
2015,05,08,15,52,25.00
2015,05,08,15,53,24.90
2015,05,08,15,54,24.90
2015,05,08,15,55,24.80
2015,05,08,15,56,24.70
2015,05,08,15,57,24.60
2015,05,08,15,58,24.50
2015,05,08,15,59,24.50
2015,05,08,16,00,24.40
2015,05,08,16,01,24.40
2015,05,08,16,02,24.40
2015,05,08,16,03,24.40
2015,05,08,16,04,24.30
2015,05,08,16,05,24.40
2015,05,08,16,06,24.40
2015,05,08,16,07,24.40
2015,05,08,16,08,24.40
2015,05,08,16,09,24.50
2015,05,08,16,10,24.60
2015,05,08,16,11,24.60
2015,05,08,16,12,24.60
2015,05,08,16,13,24.70
2015,05,08,16,14,24.70
2015,05,08,16,15,24.70
2015,05,08,16,16,24.60
2015,05,08,16,17,24.60
2015,05,08,16,18,24.60
2015,05,08,16,19,24.60
2015,05,08,16,20,24.60
2015,05,08,16,21,24.60
2015,05,08,16,22,24.60
2015,05,08,16,23,24.60
2015,05,08,16,24,24.60
2015,05,08,16,25,24.60
2015,05,08,16,26,24.60
2015,05,08,16,27,24.60
2015,05,08,16,28,24.60
2015,05,08,16,29,24.60
2015,05,08,16,30,24.60
2015,05,08,16,31,24.70
2015,05,08,16,32,24.70
2015,05,08,16,33,24.70
2015,05,08,16,34,24.70
2015,05,08,16,35,24.70
2015,05,08,16,36,24.60
2015,05,08,16,37,24.60
2015,05,08,16,38,24.60
2015,05,08,16,39,24.50
2015,05,08,16,40,24.40
2015,05,08,16,41,24.40
2015,05,08,16,42,24.40
2015,05,08,16,43,24.40
2015,05,08,16,44,24.50
2015,05,08,16,45,24.60
2015,05,08,16,46,24.70
2015,05,08,16,47,24.80
2015,05,08,16,48,24.80
2015,05,08,16,49,24.90
2015,05,08,16,50,24.90
2015,05,08,16,51,25.00
2015,05,08,16,52,25.00
2015,05,08,16,53,25.10
2015,05,08,16,54,25.10
2015,05,08,16,55,25.20
2015,05,08,16,56,25.20
2015,05,08,16,57,25.30
2015,05,08,16,58,25.20
2015,05,08,16,59,25.10
2015,05,08,17,00,25.00
2015,05,08,17,01,24.80
2015,05,08,17,02,24.70
2015,05,08,17,03,24.60
2015,05,08,17,04,24.50
2015,05,08,17,05,24.50
2015,05,08,17,06,24.40
2015,05,08,17,07,24.40
2015,05,08,17,08,24.50
2015,05,08,17,09,24.60
2015,05,08,17,10,24.60
2015,05,08,17,11,24.60
2015,05,08,17,12,24.60
2015,05,08,17,13,24.60
2015,05,08,17,14,24.50
2015,05,08,17,15,24.60
2015,05,08,17,16,24.60
2015,05,08,17,17,24.60
2015,05,08,17,18,24.60
2015,05,08,17,19,24.70
2015,05,08,17,20,24.60
2015,05,08,17,21,24.60
2015,05,08,17,22,24.50
2015,05,08,17,23,24.40
2015,05,08,17,24,24.30
2015,05,08,17,25,24.20
2015,05,08,17,26,24.20
2015,05,08,17,27,24.20
2015,05,08,17,28,24.20
2015,05,08,17,29,24.20
2015,05,08,17,30,24.20
2015,05,08,17,31,24.20
2015,05,08,17,32,24.20
2015,05,08,17,33,24.20
2015,05,08,17,34,24.20
2015,05,08,17,35,24.20
2015,05,08,17,36,24.20
2015,05,08,17,37,24.20
2015,05,08,17,38,24.10
2015,05,08,17,39,24.10
2015,05,08,17,40,24.20
2015,05,08,17,41,24.20
2015,05,08,17,42,24.30